STARLINK-30449, 57903

Orbit data source: Space-Track

STARLINK-30449, 57903 is a payload satellite owned by SpaceX/Seattle (US) in LEO that was launched on Wed, 20 Sep 2023 UTC via an FALCON 9 launch vehicle from the Air Force Eastern Test Range (AFETR). Payload-class satellites include a variety of spacecraft equipped with specific instruments for various scientific and technological missions. These include communications satellites like Starlink; space stations such as the ISS; scientific satellites like the Hubble; Earth observation satellites from companies like Planet Labs, Umbra, and HawkEye 360; GPS; miniature CubeSats for education and research; and military/defense satellites.

Loading next visibility...
Identifier
57903, 2023-146N
Orbit
LEO
Country
Flag of USUS
Related business
Manufacturer
SpaceX/Seattle
Mission
Operational Commercial Communications
Bus & Motor
STARLINK V2M, Unknown motor
Mass
730 kg wet, ~700 kg dry
Launch date (UTC)
2023-09-20 (3 years ago)
Launch vehicle
FALCON 9
Launch site
Air Force Eastern Test Range (AFETR)
Object type
Payload
Rocket body
Debris
Shape & HBR
Box + 2 Pan, 17.7 m
Radar Cross Section
33.884 m², Large (>1 m²)

Expand to show TLE details & history
Last TLE update: 2 days ago

TLE from 2 days ago
0 STARLINK-30449
1 57903U 23146N   26171.18602526  .00001793  00000-0  74637-4 0  9998
2 57903  43.0050  95.1860 0001720 271.1611  88.9044 15.27593765151679
Epoch: 2026-06-20T04:27Z
TLE epoch observation values (Epoch: 2026-06-20T04:27:52.582Z)
Latitude
0.00001°
Longitude
119.81265°
Altitude
482.761 km
Speed
7.626 km/s
True Right ascension
06h 20m 44s
True Declination
0° 00' 00"
Sunlit
Object was in daylight at epoch
Visualization orbit readout
Latitude
Unknown
Longitude
Unknown
Altitude
Unknown
Speed
Unknown
Apparent Right ascension
Unknown
Apparent Declination
Unknown
Sunlit
N/A
Visualization observer readout
Local Sidereal Time
21:42:38
Azimuth
Unknown
Elevation
Unknown
Doppler factor
Unknown
Orbital elements
Apogee altitude
486.133 km
Perigee altitude
483.772 km
Semi-major axis
6,863.089 km
Eccentricity
0.00017
Inclination
43.005°
RAAN
95.186°
Arg. of periapsis
271.1611°
True anomaly
88.92411°
Mean anomaly
88.9044°
Eccentric anomaly
88.91425°
Mean motion
3.81737 °/min
Orbital period
94.31 mins
BSTAR
0.000074637
Loading maneuver chart data...
Computing Atmospheric mass density...
Loading historical data...
Loading historical data...
Loading historical data...
Loading historical data...
Loading historical data...
Loading historical data...
Loading historical data...

Documentation

Showing up to 5 results
|